Location: Dodgeville, WI 53533, USA
(43.0344°N, 90.0900°W)
Time: 09:34:53
(UTC-05:00)

ISS - Visible Passes

Search period start: 25 September 2022 00:00
Search period end: 05 October 2022 00:00
Orbit: 414 x 417 km, 51.6° (Epoch: 25 September)

Date Brightness Start Highest point End Pass type
(mag) Time Alt. Az. Time Alt. Az. Time Alt. Az.
25 Sep -1.5 19:44:37 10° NW 19:47:03 18° N 19:49:30 10° NE visible
25 Sep -1.1 21:21:32 10° NW 21:22:44 18° NNW 21:22:44 18° NNW visible
26 Sep -2.1 20:32:56 10° NW 20:35:43 24° NNE 20:35:53 23° NNE visible
27 Sep -1.8 19:44:15 10° NW 19:46:52 20° N 19:49:03 12° NE visible
27 Sep -1.0 21:20:48 10° NW 21:21:55 19° NW 21:21:55 19° NW visible
28 Sep -2.8 20:32:11 10° NW 20:35:06 37° NNE 20:35:06 37° NNE visible
29 Sep -2.4 19:43:33 10° NW 19:46:31 28° NNE 19:48:18 18° ENE visible
29 Sep -0.9 21:20:07 10° WNW 21:21:11 19° WNW 21:21:11 19° WNW visible
30 Sep -3.6 20:31:22 10° NW 20:34:25 70° NNW 20:34:25 70° NNW visible
01 Oct -3.4 19:42:40 10° NW 19:45:57 51° NNE 19:47:43 24° E visible
01 Oct -0.7 21:19:48 10° W 21:20:36 14° W 21:20:36 14° W visible
02 Oct -2.7 20:30:42 10° WNW 20:33:51 37° SW 20:33:58 37° SW visible
03 Oct -3.5 19:41:49 10° WNW 19:45:09 66° SW 19:47:26 19° SE visible
04 Oct -1.1 20:30:46 10° W 20:32:42 15° SW 20:33:55 13° SSW visible
